CZ-2C R/B, 66548

Orbit data source: Space-Track

CZ-2C R/B, 66548 is space debris in LEO originally from a launch on Wed, 19 Nov 2025 UTC launched from the Jiuquan Satellite Launch Center, China (JSC). Debris objects in space refer to the collection of defunct objects orbiting the Earth. Examples of debris include non-operational satellites, rocket bodies, and fragments generated from explosions, collisions, or faulty payload assembly.

Loading next visibility...
Identifier
66548, 2025-266D
Orbit
LEO
Country
Flag of CNCN / PRC
Related business
Manufacturer
BWYIC
Mission
Spacecraft
Bus & Motor
CZ-2 STAGE 2, Unknown motor
Mass
4,006 kg wet, 4,006 kg dry
Launch date (UTC)
2025-11-19 (7 months ago)
Launch vehicle
Unknown
Launch site
Jiuquan Satellite Launch Center, China (JSC)
Object type
Payload
Rocket body
Debris
Shape & HBR
Cyl, 8.0 m
Radar Cross Section
23.715 m², Large (>1 m²)

Expand to show TLE details & history
Last TLE update: 13 hours ago

TLE from 13 hours ago
0 CZ-2C R/B
1 66548U 25266D   26171.31072970  .00009461  00000-0  25725-3 0  9990
2 66548  52.0527 144.2704 0075573 110.0141 250.9004 15.35445571 32699
Epoch: 2026-06-20T07:27Z
TLE epoch observation values (Epoch: 2026-06-20T07:27:27.046Z)
Latitude
-0.00004°
Longitude
123.8805°
Altitude
477.635 km
Speed
7.619 km/s
True Right ascension
09h 37m 04s
True Declination
0° 00' 00"
Sunlit
Object was in daylight at epoch
Visualization orbit readout
Latitude
Unknown
Longitude
Unknown
Altitude
Unknown
Speed
Unknown
Apparent Right ascension
Unknown
Apparent Declination
Unknown
Sunlit
N/A
Visualization observer readout
Local Sidereal Time
07:12:46
Azimuth
Unknown
Elevation
Unknown
Doppler factor
Unknown
Orbital elements
Apogee altitude
511.713 km
Perigee altitude
408.356 km
Semi-major axis
6,838.172 km
Eccentricity
0.00756
Inclination
52.0527°
RAAN
144.2704°
Arg. of periapsis
110.0141°
True anomaly
250.08462°
Mean anomaly
250.9004°
Eccentric anomaly
250.49225°
Mean motion
3.83825 °/min
Orbital period
93.79 mins
BSTAR
0.00025725
Loading maneuver chart data...
Computing Atmospheric mass density...
Loading historical data...
Loading historical data...
Loading historical data...
Loading historical data...
Loading historical data...
Loading historical data...
Loading historical data...
Other satellites on launch #266 in the year 2025 (2025-11-19 UTC)

Documentation

Showing up to 5 results
|